Overview Statistics Trail Chart Weather Telemetry Raw packets
 

This is the latest recevied weather packets stored in our database for station/object PA3DZX-13. If no packets are shown the sender has not sent any weather packets the latest 10 day(s).

<< 1 2 3 4 >>
Time Temp. Humidity Pressure Rain* Wind** Luminosity Snow
1788619858 17.78° C 62% 1021.8 hPa 0 mm - - -
1788618959 17.78° C 62% 1021.8 hPa 0 mm - - -
1788618058 17.78° C 63% 1021.6 hPa 0 mm - - -
1788617158 17.78° C 63% 1021.6 hPa 0 mm - - -
1788616258 18.89° C 61% 1021.2 hPa 0 mm - - -
1788615358 18.89° C 59% 1021.1 hPa 0 mm - - -
1788614457 18.89° C 60% 1021.2 hPa 0 mm - - -
1788613557 18.89° C 59% 1021.1 hPa 0 mm - - -
1788612658 17.78° C 61% 1020.8 hPa 0 mm - - -
1788611758 17.78° C 64% 1020.8 hPa 0 mm - - -
1788610857 18.89° C 61% 1020.5 hPa 0 mm - - -
1788609957 17.78° C 62% 1020.5 hPa 0 mm - - -
1788609056 17.78° C 61% 1020.2 hPa 0 mm - - -
1788608156 17.78° C 62% 1020 hPa 0 mm - - -
1788607255 18.89° C 61% 1019.7 hPa 0 mm - - -
1788606356 17.78° C 63% 1019.9 hPa 0 mm - - -
1788605455 17.78° C 65% 1019.6 hPa 0 mm - - -
1788604555 18.89° C 63% 1019.4 hPa 0 mm - - -
1788603654 17.78° C 68% 1019.2 hPa 0 mm - - -
1788603505 17.78° C 68% 1019.2 hPa 0 mm - - -
1788602604 16.67° C 70% 1019 hPa 0 mm - - -
1788602129 17.78° C 64% 1018.8 hPa 0 mm - - -
1788601227 18.89° C 67% 1018.6 hPa 0 mm - - -
1788600327 17.78° C 68% 1018.6 hPa 0 mm - - -
1788599426 17.78° C 71% 1018.4 hPa 0 mm - - -

* Rain latest hour (hover to see other rain measurements)
** Current wind speed in m/s (hover to see current wind gust speed)